Location: Star Dogged Moon Observatory
(29.7756°N, 82.0783°W)
Time: 22:56:03
(UTC-04:00)

Amateur Radio Satellites - All Passes

Search period start: 20 October 2017 22:26
Search period end: 21 October 2017 22:26
Location: Star Dogged Moon Observatory, 29.7756°N, 82.0783°W

Satellite Date Start Highest point End Downlink Frequencies (MHz)
Time Altitude Azimuth
EO-88 20 Oct 22:34:55 22:38:28 52° 76° (ENE) 22:42:02 145.990 - 145.960
YUBILEINY 20 Oct 22:36:35 22:44:45 45° 271° (W) 22:52:57 435.215
Max Valier Satellite 20 Oct 22:45:28 22:49:11 70° 259° (W) 22:52:55 145.860
UNISAT 6 20 Oct 22:45:43 22:49:54 35° 98° (E) 22:53:58 437.425
FO-29 20 Oct 22:49:00 22:56:00 60° 286° (WNW) 23:03:35 435.910
RS-15 20 Oct 22:53:04 22:53:12 10° 97° (E) 22:53:19 29.354- 29.394
TIGRISAT 20 Oct 23:00:13 23:04:38 48° 99° (E) 23:08:55 435.000
AO-85 20 Oct 23:01:38 23:06:09 46° 61° (ENE) 23:10:59 145.980
BEESAT 2 20 Oct 23:04:51 23:08:51 72° 63° (ENE) 23:12:48 435.950
BEESAT 3 20 Oct 23:22:02 23:24:23 16° 251° (WSW) 23:26:43 437.485
LO-87 20 Oct 23:23:50 23:26:40 22° 73° (ENE) 23:29:30 145.935 - 145.965
DELFI C3 20 Oct 23:33:33 23:34:55 12° 266° (W) 23:36:18 145.870
PRISM 20 Oct 23:42:51 23:46:58 70° 102° (ESE) 23:51:05 437.425
ESTCUBE 1 21 Oct 00:00:34 00:04:55 51° 75° (ENE) 00:09:15 437.505/2401.250
UNISAT 6 21 Oct 00:23:30 00:26:13 16° 291° (WNW) 00:28:55 437.425
AIST 2D 21 Oct 00:32:40 00:36:07 70° 100° (E) 00:39:33 435.315
SPROUT 21 Oct 00:36:16 00:39:52 27° 72° (ENE) 00:43:30 437.525
TIGRISAT 21 Oct 00:39:11 00:40:47 12° 293° (WNW) 00:42:22 435.000
AO-85 21 Oct 00:43:26 00:46:17 16° 251° (WSW) 00:49:12 145.980
RS-15 21 Oct 00:51:28 01:03:29 69° 112° (ESE) 01:15:40 29.354- 29.394
LO-87 21 Oct 00:57:58 00:59:58 14° 265° (W) 01:01:59 145.935 - 145.965
EO-79 21 Oct 01:12:14 01:16:28 65° 101° (E) 01:20:39 145.935-145.965
POLYITAN 1 21 Oct 01:17:06 01:21:22 75° 102° (ESE) 01:25:34 437.675
VELOX 1 21 Oct 01:24:16 01:28:37 74° 77° (ENE) 01:33:00 145.980
50 SAT 21 Oct 01:32:25 01:34:35 17° 72° (ENE) 01:36:45 437.505
QB50P2 21 Oct 01:37:32 01:41:40 51° 285° (WNW) 01:45:46 145.880/145.840
NANOSAT C BR1 21 Oct 01:40:09 01:44:20 62° 284° (WNW) 01:48:28 145.865
ESTCUBE 1 21 Oct 01:41:35 01:41:53 10° 267° (W) 01:42:11 437.505/2401.250
DUCHIFAT 1 21 Oct 01:50:37 01:54:44 52° 285° (WNW) 01:58:48 145.980
BUGSAT 1 21 Oct 01:56:21 02:00:12 35° 98° (E) 02:04:00 437.445
SPROUT 21 Oct 02:12:48 02:15:41 18° 264° (W) 02:18:36 437.525
DX 1 21 Oct 02:28:43 02:33:02 86° 258° (WSW) 02:37:22 434.975-435.025
M-CUBED/EXP-1 PRIME 21 Oct 02:46:42 02:50:11 39° 105° (ESE) 02:53:56 437.505
Oscar 19 21 Oct 02:47:22 02:52:27 64° 101° (E) 02:57:31 437.125/150
UKube-1 21 Oct 02:51:32 02:55:48 75° 258° (WSW) 03:00:06 .
BEESAT 21 Oct 02:53:50 02:55:19 11° 66° (ENE) 02:56:49 436.000
NO-84 21 Oct 02:57:27 03:01:41 72° 126° (SE) 03:05:57 435.350 FM
50 SAT 21 Oct 03:04:50 03:06:44 15° 264° (W) 03:08:40 437.505
RS-15 21 Oct 03:06:11 03:16:46 33° 311° (NW) 03:27:27 29.354- 29.394
Gurwin Techsat 1B 21 Oct 03:23:33 03:28:53 82° 284° (WNW) 03:34:11 435.225
BUGSAT 1 21 Oct 03:33:05 03:35:10 14° 291° (WNW) 03:37:15 437.445
MOZHAYETS 4 21 Oct 03:37:42 03:42:01 40° 74° (ENE) 03:46:21
CUBESAT XI-V 21 Oct 03:54:03 03:55:13 11° 67° (ENE) 03:56:24 437.345
AO-7 21 Oct 04:10:13 04:17:39 36° 100° (E) 04:25:03 .
ITUPSAT 1 21 Oct 04:12:39 04:17:27 88° 253° (WSW) 04:22:17 437.325
M-CUBED/EXP-1 PRIME 21 Oct 04:23:38 04:24:19 10° 294° (WNW) 04:25:00 437.505
BEESAT 21 Oct 04:27:50 04:32:32 57° 259° (W) 04:37:15 436.000
Oscar 19 21 Oct 04:29:33 04:31:09 11° 295° (WNW) 04:32:46 437.125/150
NO-84 21 Oct 04:37:11 04:39:28 14° 322° (NW) 04:41:44 435.350 FM
JUGNU 21 Oct 04:52:22 04:55:29 15° 162° (SSE) 04:58:34 437.505
ITAMSAT 1 21 Oct 05:00:32 05:05:47 72° 103° (ESE) 05:10:59 435.822/435.867
KKS-1 21 Oct 05:01:22 05:04:16 17° 69° (ENE) 05:07:12 437.445
MOZHAYETS 4 21 Oct 05:16:51 05:19:15 14° 266° (W) 05:21:39
CUBESAT XI-V 21 Oct 05:27:32 05:32:03 54° 260° (W) 05:36:36 437.345
DOVE 4 21 Oct 05:31:04 05:34:26 17° 95° (E) 05:37:51 437.250
STARS 21 Oct 05:32:35 05:35:01 15° 69° (ENE) 05:37:27 437.465
AO-7 21 Oct 06:02:43 06:10:18 41° 294° (WNW) 06:17:54 .
SO-50 21 Oct 06:09:37 06:12:52 20° 110° (ESE) 06:16:07 436.795
O/OREOS (USA 219) 21 Oct 06:23:08 06:24:28 11° 61° (ENE) 06:25:49 437.305
KKS-1 21 Oct 06:36:38 06:40:32 30° 262° (W) 06:44:27 437.445
JUGNU 21 Oct 06:39:08 06:43:57 26° 171° (S) 06:48:45 437.505
ITAMSAT 1 21 Oct 06:43:33 06:44:33 11° 296° (WNW) 06:45:32 435.822/435.867
XW-2C 21 Oct 06:46:50 06:49:35 19° 96° (E) 06:52:20 145.795 - 145.815
HO-68 21 Oct 07:06:37 07:09:38 13° 93° (E) 07:12:37 435.675
STARS 21 Oct 07:06:58 07:10:59 36° 261° (W) 07:15:02 437.465
DOVE 4 21 Oct 07:07:20 07:12:06 42° 286° (WNW) 07:17:02 437.250
CUTE-I 21 Oct 07:15:08 07:20:09 40° 99° (E) 07:25:09 437.470
SRMSAT 21 Oct 07:18:15 07:20:01 11° 160° (SSE) 07:21:46 437.500
KAITUO 1B 21 Oct 07:27:03 07:30:38 51° 100° (E) 07:34:13 145.475/437.950
XW-2F 21 Oct 07:30:10 07:33:53 80° 101° (E) 07:37:35 145.980 - 146.000
LilacSat-2 21 Oct 07:37:07 07:40:50 67° 284° (WNW) 07:44:33 437.200
NUDT-PHONESAT 21 Oct 07:39:50 07:43:29 78° 101° (ESE) 07:47:07 437.300
XW-2D 21 Oct 07:43:16 07:46:56 56° 284° (WNW) 07:50:35 145.860 - 145.880
SO-50 21 Oct 07:49:09 07:53:04 29° 303° (WNW) 07:57:00 436.795
CUTE 1.7 + AOD 2 21 Oct 07:52:47 07:56:19 26° 97° (E) 07:59:50 437.475
RS-15 21 Oct 07:53:29 07:56:39 11° 25° (NNE) 07:59:48 29.354- 29.394
XW-2B 21 Oct 07:56:56 08:00:23 37° 285° (WNW) 08:03:51 145.730 - 145.750
SEEDS 21 Oct 07:58:53 08:01:42 18° 95° (E) 08:04:31 437.485
O/OREOS (USA 219) 21 Oct 07:59:42 08:04:10 53° 255° (WSW) 08:08:35 437.305
STRAND 1 21 Oct 08:14:25 08:19:32 83° 77° (ENE) 08:24:41 437.568
XW-2C 21 Oct 08:21:00 08:23:35 18° 288° (WNW) 08:26:09 145.795 - 145.815
AAUSAT CUBESAT 2 21 Oct 08:21:05 08:22:55 13° 94° (E) 08:24:45 437.432
JUGNU 21 Oct 08:27:22 08:32:29 31° 181° (S) 08:37:35 437.505
PCSat 21 Oct 08:31:17 08:36:40 77° 112° (ESE) 08:42:05 145.827
HO-68 21 Oct 08:50:39 08:57:52 82° 286° (WNW) 09:05:03 435.675
AO-73 21 Oct 08:52:00 08:54:42 16° 94° (E) 08:57:23 145.935
CUTE-I 21 Oct 08:56:03 08:59:50 20° 292° (WNW) 09:03:37 437.470
FO-29 21 Oct 08:56:50 09:01:11 28° 69° (ENE) 09:05:44 435.910
XW-2A 21 Oct 08:59:57 09:03:15 64° 100° (E) 09:06:32 145.665 - 145.685
CUBEBUG 2 21 Oct 09:01:29 09:06:03 77° 284° (WNW) 09:10:28 437.445
SRMSAT 21 Oct 09:04:02 09:08:37 23° 168° (SSE) 09:13:12 437.500
ZACube-1 21 Oct 09:13:32 09:17:31 36° 98° (E) 09:21:23 437.345
nSIGHT-1 21 Oct 09:28:35 09:31:44 67° 132° (SE) 09:34:55 .
CUTE 1.7 + AOD 2 21 Oct 09:29:04 09:31:54 18° 289° (WNW) 09:34:45 437.475
YUBILEINY 21 Oct 09:33:19 09:41:21 44° 89° (E) 09:49:24 435.215
SEEDS 21 Oct 09:33:51 09:37:18 26° 287° (WNW) 09:40:45 437.485
UWE-3 21 Oct 09:37:51 09:42:09 50° 285° (WNW) 09:46:19 435.000/436.395/437.385
UNISAT 6 21 Oct 09:39:22 09:42:14 16° 69° (ENE) 09:45:08 437.425
Oscar 11 21 Oct 09:48:23 09:52:37 58° 100° (E) 09:56:50 .
TIGRISAT 21 Oct 09:53:11 09:56:41 22° 70° (ENE) 10:00:13 435.000
AAUSAT CUBESAT 2 21 Oct 09:54:39 09:58:24 34° 286° (WNW) 10:02:09 437.432
RS-15 21 Oct 10:02:22 10:13:30 44° 54° (NE) 10:24:00 29.354- 29.394
ISS 21 Oct 10:03:49 10:06:58 49° 316° (NW) 10:10:07 437.550
JUGNU 21 Oct 10:16:22 10:21:02 25° 190° (S) 10:25:40 437.505
PCSat 21 Oct 10:18:32 10:20:35 12° 308° (NW) 10:22:38 145.827
Max Valier Satellite 21 Oct 10:22:18 10:24:33 16° 95° (E) 10:26:48 145.860
PRISM 21 Oct 10:26:49 10:29:51 21° 71° (ENE) 10:32:53 437.425
AO-73 21 Oct 10:27:14 10:30:55 28° 287° (WNW) 10:34:31 145.935
FO-29 21 Oct 10:42:05 10:46:14 24° 264° (W) 10:50:33 435.910
HO-68 21 Oct 10:42:22 10:44:28 11° 301° (WNW) 10:46:35 435.675
ZACube-1 21 Oct 10:51:15 10:53:23 14° 291° (WNW) 10:55:30 437.345
SRMSAT 21 Oct 10:52:08 10:57:18 31° 178° (S) 11:02:29 437.500
DELFI C3 21 Oct 11:13:15 11:17:11 60° 283° (WNW) 11:21:05 145.870
NO-84 21 Oct 11:13:47 11:17:04 30° 44° (NE) 11:20:06 435.350 FM
UNISAT 6 21 Oct 11:14:18 11:18:33 37° 262° (W) 11:22:53 437.425
BEESAT 3 21 Oct 11:27:45 11:30:39 20° 110° (ESE) 11:33:36 437.485
TIGRISAT 21 Oct 11:29:13 11:33:07 27° 263° (W) 11:37:06 435.000
YUBILEINY 21 Oct 11:30:42 11:38:08 31° 284° (WNW) 11:45:39 435.215
EO-88 21 Oct 11:42:40 11:46:08 45° 285° (WNW) 11:49:36 145.990 - 145.960
Max Valier Satellite 21 Oct 11:55:27 11:58:15 21° 287° (WNW) 12:01:03 145.860
EO-79 21 Oct 11:59:09 12:02:24 22° 71° (ENE) 12:05:40 145.935-145.965
ESTCUBE 1 21 Oct 11:59:58 12:02:56 17° 95° (E) 12:05:54 437.505/2401.250
PRISM 21 Oct 12:01:54 12:04:57 21° 263° (W) 12:08:01 437.425
POLYITAN 1 21 Oct 12:03:55 12:07:24 25° 72° (ENE) 12:10:54 437.675
JUGNU 21 Oct 12:07:00 12:09:27 13° 199° (SSW) 12:11:55 437.505
RS-15 21 Oct 12:15:01 12:25:45 45° 253° (WSW) 12:36:00 29.354- 29.394
QB50P2 21 Oct 12:23:34 12:27:40 50° 75° (ENE) 12:31:49 145.880/145.840
NANOSAT C BR1 21 Oct 12:25:50 12:29:48 41° 74° (ENE) 12:33:48 145.865
LO-87 21 Oct 12:28:42 12:32:18 66° 100° (E) 12:35:52 145.935 - 145.965
AIST 2D 21 Oct 12:33:50 12:37:00 32° 262° (W) 12:40:11 435.315
DUCHIFAT 1 21 Oct 12:35:51 12:39:54 47° 75° (ENE) 12:44:00 145.980
SRMSAT 21 Oct 12:41:04 12:46:02 28° 188° (S) 12:51:01 437.500
BUGSAT 1 21 Oct 12:42:07 12:43:35 12° 68° (ENE) 12:45:02 437.445
BEESAT 2 21 Oct 12:49:50 12:53:41 53° 114° (ESE) 12:57:38 435.950
NO-84 21 Oct 12:52:07 12:54:05 14° 241° (WSW) 12:55:58 435.350 FM
BEESAT 3 21 Oct 13:04:46 13:08:01 24° 303° (WNW) 13:11:17 437.485
AO-85 21 Oct 13:10:51 13:14:39 57° 115° (ESE) 13:18:29 145.980
VELOX 1 21 Oct 13:20:46 13:24:14 22° 97° (E) 13:27:42 145.980
M-CUBED/EXP-1 PRIME 21 Oct 13:28:36 13:30:39 15° 68° (ENE) 13:32:40 437.505
EO-79 21 Oct 13:34:39 13:37:59 22° 263° (W) 13:41:20 145.935-145.965
ESTCUBE 1 21 Oct 13:35:47 13:39:42 30° 287° (WNW) 13:43:37 437.505/2401.250
POLYITAN 1 21 Oct 13:39:58 13:43:04 19° 264° (W) 13:46:12 437.675
Oscar 19 21 Oct 13:58:08 14:03:07 50° 74° (ENE) 14:08:05 437.125/150
SPROUT 21 Oct 14:02:39 14:06:55 66° 283° (WNW) 14:11:08 437.525
NANOSAT C BR1 21 Oct 14:04:13 14:05:37 11° 266° (W) 14:07:00 145.865
BUGSAT 1 21 Oct 14:14:32 14:18:28 41° 261° (W) 14:22:28 437.445
DX 1 21 Oct 14:23:13 14:26:53 26° 98° (E) 14:30:32 434.975-435.025
50 SAT 21 Oct 14:28:00 14:31:03 34° 99° (E) 14:34:04 437.505
SRMSAT 21 Oct 14:31:05 14:34:41 16° 197° (SSW) 14:38:17 437.500
BEESAT 2 21 Oct 14:31:08 14:31:43 10° 309° (NW) 14:32:17 435.950
Gurwin Techsat 1B 21 Oct 14:38:26 14:43:44 88° 75° (ENE) 14:49:04 435.225
UKube-1 21 Oct 14:44:44 14:48:27 28° 98° (E) 14:52:10 .
VELOX 1 21 Oct 14:56:59 15:00:32 24° 289° (WNW) 15:04:05 145.980
M-CUBED/EXP-1 PRIME 21 Oct 15:02:25 15:04:55 19° 257° (WSW) 15:07:22 437.505
AO-7 21 Oct 15:03:17 15:10:07 30° 63° (ENE) 15:16:57 .
Oscar 19 21 Oct 15:39:58 15:42:35 14° 266° (W) 15:45:13 437.125/150
MOZHAYETS 4 21 Oct 15:39:59 15:42:36 15° 95° (E) 15:45:12
DX 1 21 Oct 15:59:39 16:02:50 20° 290° (WNW) 16:06:01 434.975-435.025
ITAMSAT 1 21 Oct 16:12:25 16:17:30 59° 74° (ENE) 16:22:37 435.822/435.867
ITUPSAT 1 21 Oct 16:19:22 16:23:49 38° 99° (E) 16:28:14 437.325
UKube-1 21 Oct 16:21:16 16:24:12 18° 290° (WNW) 16:27:09 .
SO-50 21 Oct 16:25:14 16:29:41 45° 60° (ENE) 16:34:11 436.795
BEESAT 21 Oct 16:33:49 16:38:31 58° 101° (E) 16:43:12 436.000
ISS 21 Oct 16:38:05 16:38:54 11° 34° (NNE) 16:39:44 437.550
AO-7 21 Oct 16:54:27 17:02:25 51° 257° (WSW) 17:10:25 .
MOZHAYETS 4 21 Oct 17:15:37 17:19:47 36° 287° (WNW) 17:23:56
PCSat 21 Oct 17:26:27 17:30:05 18° 55° (NE) 17:33:43 145.827
CUBESAT XI-V 21 Oct 17:29:49 17:34:21 58° 100° (E) 17:38:53 437.345
nSIGHT-1 21 Oct 17:36:19 17:39:26 49° 44° (NE) 17:42:33 .
ITAMSAT 1 21 Oct 17:55:31 17:57:13 12° 266° (W) 17:58:57 435.822/435.867
ITUPSAT 1 21 Oct 17:58:18 18:01:16 17° 292° (WNW) 18:04:14 437.325
KAITUO 1B 21 Oct 18:04:18 18:04:25 10° 69° (ENE) 18:04:32 145.475/437.950
XW-2F 21 Oct 18:06:10 18:08:25 15° 71° (ENE) 18:10:40 145.980 - 146.000
DOVE 4 21 Oct 18:06:51 18:10:59 78° 260° (W) 18:15:16 437.250
SO-50 21 Oct 18:07:20 18:09:44 14° 252° (WSW) 18:12:09 436.795
ISS 21 Oct 18:12:25 18:15:40 65° 228° (SW) 18:18:53 437.550
LilacSat-2 21 Oct 18:13:22 18:16:24 23° 73° (ENE) 18:19:26 437.200
NUDT-PHONESAT 21 Oct 18:14:20 18:16:17 14° 71° (ENE) 18:18:14 437.300
BEESAT 21 Oct 18:14:29 18:15:43 11° 294° (WNW) 18:16:57 436.000
XW-2D 21 Oct 18:18:38 18:21:48 25° 73° (ENE) 18:24:57 145.860 - 145.880
CUTE-I 21 Oct 18:31:06 18:35:53 36° 72° (ENE) 18:40:43 437.470
XW-2B 21 Oct 18:31:45 18:35:15 36° 75° (ENE) 18:38:45 145.730 - 145.750
KKS-1 21 Oct 18:32:42 18:37:13 80° 103° (ESE) 18:41:40 437.445
XW-2C 21 Oct 18:54:44 18:58:32 84° 78° (ENE) 19:02:21 145.795 - 145.815
STARS 21 Oct 19:01:39 19:06:03 63° 101° (E) 19:10:26 437.465
PCSat 21 Oct 19:08:29 19:13:41 49° 250° (WSW) 19:18:52 145.827
CUBESAT XI-V 21 Oct 19:10:47 19:11:09 10° 293° (WNW) 19:11:32 437.345
HO-68 21 Oct 19:12:41 19:19:15 41° 69° (ENE) 19:25:51 435.675
KAITUO 1B 21 Oct 19:34:32 19:37:59 36° 261° (W) 19:41:27 145.475/437.950
XW-2F 21 Oct 19:39:10 19:42:16 24° 263° (W) 19:45:22 145.980 - 146.000
NUDT-PHONESAT 21 Oct 19:46:43 19:49:51 25° 262° (W) 19:52:59 437.300
LilacSat-2 21 Oct 19:48:06 19:50:34 16° 264° (W) 19:53:01 437.200
CUBEBUG 2 21 Oct 19:52:49 19:57:10 41° 74° (ENE) 20:01:37 437.445
YUBILEINY 21 Oct 19:53:14 19:57:46 15° 70° (ENE) 20:02:17 435.215
XW-2D 21 Oct 19:53:48 19:55:54 14° 265° (W) 19:58:01 145.860 - 145.880
ZACube-1 21 Oct 20:04:12 20:06:50 15° 69° (ENE) 20:09:31 437.345
CUTE-I 21 Oct 20:12:02 20:15:56 21° 264° (W) 20:19:51 437.470
CUTE 1.7 + AOD 2 21 Oct 20:14:05 20:18:14 55° 260° (W) 20:22:22 437.475
SEEDS 21 Oct 20:18:20 20:22:31 87° 263° (W) 20:26:42 437.485
O/OREOS (USA 219) 21 Oct 20:26:49 20:30:56 35° 103° (ESE) 20:35:06 437.305
UWE-3 21 Oct 20:27:43 20:32:14 59° 76° (ENE) 20:36:51 435.000/436.395/437.385
STRAND 1 21 Oct 20:31:09 20:36:06 47° 100° (E) 20:41:02 437.568
Oscar 11 21 Oct 20:37:49 20:41:03 21° 71° (ENE) 20:44:17 .
AAUSAT CUBESAT 2 21 Oct 20:37:56 20:41:59 63° 76° (ENE) 20:46:02 437.432
XW-2A 21 Oct 20:57:23 21:00:34 37° 261° (W) 21:03:45 145.665 - 145.685
HO-68 21 Oct 21:00:51 21:06:55 30° 262° (W) 21:13:02 435.675
AO-73 21 Oct 21:15:08 21:19:41 85° 256° (WSW) 21:24:17 145.935
BEESAT 3 21 Oct 21:26:26 21:29:49 27° 58° (ENE) 21:33:09 437.485
CUBEBUG 2 21 Oct 21:31:27 21:33:53 14° 267° (W) 21:36:20 437.445
ZACube-1 21 Oct 21:38:29 21:42:43 38° 262° (W) 21:47:01 437.345
YUBILEINY 21 Oct 21:46:37 21:55:27 85° 265° (W) 22:04:18 435.215
AO-85 21 Oct 21:48:36 21:50:33 12° 53° (NE) 21:52:32 145.980
DELFI C3 21 Oct 21:52:37 21:55:58 29° 74° (ENE) 21:59:22 145.870
FO-29 21 Oct 21:54:03 22:01:09 55° 101° (E) 22:08:44 435.910
O/OREOS (USA 219) 21 Oct 22:07:36 22:10:25 16° 297° (WNW) 22:13:15 437.305
STRAND 1 21 Oct 22:11:50 22:14:49 16° 293° (WNW) 22:17:48 437.568
Oscar 11 21 Oct 22:13:29 22:16:59 24° 263° (W) 22:20:31 .
EO-88 21 Oct 22:14:22 22:17:25 26° 74° (ENE) 22:20:29 145.990 - 145.960
